KE8RXN Weather Reports


Display with metric or nautical units.
time (UTC)temp
F
wind
direction
speed
MPH
gust
MPH
rain 1hr
in
rain 24hr
in
rain mn
in
humidity
%
barometer
mb
20260504100454 46 42 0.0 0.0 0.00 0.00 0.00 90 1006.5
20260504081847 51 52 0.0 0.0 0.00 0.00 0.00 81 1006.9
20260504081344 51 137 2.0 2.0 0.00 0.00 0.00 81 1007.0
20260504080839 51 304 1.0 2.0 0.00 0.00 0.00 80 1007.0
20260504080337 51 212 4.0 5.0 0.00 0.00 0.00 81 1007.0
20260504070304 52 349 3.0 5.0 0.00 0.00 0.00 77 1007.7
20260504060224 52 317 1.0 1.0 0.00 0.00 0.00 78 1008.3
20260504050652 50 30 0.0 1.0 0.00 0.00 0.00 81 1008.7
20260504050149 50 217 2.0 6.0 0.00 0.00 0.00 80 1008.9
20260504045647 50 40 0.0 0.0 0.00 0.00 0.00 80 1008.9
20260504045146 51 50 1.0 1.0 0.00 0.00 0.00 80 1008.8
20260504044644 51 250 3.0 3.0 0.00 0.00 0.00 79 1009.0
20260504044141 51 40 0.0 1.0 0.00 0.00 0.00 79 1008.9
20260504043638 51 29 1.0 1.0 0.00 0.00 0.00 79 1009.1
20260504043135 51 28 0.0 1.0 0.00 0.00 0.00 78 1009.0
20260504042633 51 46 0.0 1.0 0.00 0.00 0.00 78 1009.1
20260504042129 51 225 0.0 2.0 0.00 0.00 0.00 78 1009.1
20260504041625 51 80 1.0 1.0 0.00 0.00 0.00 78 1009.1
20260504041121 51 43 1.0 2.0 0.00 0.00 0.00 77 1009.1
20260504040619 51 223 2.0 3.0 0.00 0.00 0.00 77 1009.1
20260504040115 51 39 0.0 1.0 0.00 0.00 0.00 77 1009.1
20260504035612 51 38 0.0 0.0 0.00 0.00 0.00 77 1009.1
20260504035109 51 13 0.0 1.0 0.00 0.00 0.00 78 1009.4
20260504034607 51 351 1.0 2.0 0.00 0.00 0.00 78 1009.4
20260504034103 51 211 2.0 3.0 0.00 0.00 0.00 78 1009.3
20260504033601 51 58 0.0 1.0 0.00 0.00 0.00 78 1009.6
20260504033058 51 323 1.0 1.0 0.00 0.00 0.00 77 1009.5
20260504032555 51 34 0.0 1.0 0.00 0.00 0.00 77 1009.4
20260504032052 51 34 0.0 1.0 0.00 0.00 0.00 77 1009.7
20260504031549 51 16 2.0 3.0 0.00 0.00 0.00 76 1009.6
20260504031045 51 261 2.0 3.0 0.00 0.00 0.00 76 1009.7
20260504030542 51 64 0.0 1.0 0.00 0.00 0.00 76 1009.6
20260504030038 51 313 1.0 1.0 0.00 0.00 0.00 76 1009.7
20260504025536 51 26 0.0 0.0 0.00 0.00 0.00 75 1009.7
20260504025032 51 55 1.0 1.0 0.00 0.00 0.00 75 1009.8
20260504024529 51 64 1.0 1.0 0.00 0.00 0.00 75 1009.6
20260504024026 52 38 0.0 0.0 0.00 0.00 0.00 75 1009.9
20260504023523 52 33 0.0 0.0 0.00 0.00 0.00 74 1009.9
20260504023019 52 246 2.0 3.0 0.00 0.00 0.00 74 1009.9
20260504022515 52 226 3.0 5.0 0.00 0.00 0.00 74 1009.9
20260504022011 52 302 2.0 2.0 0.00 0.00 0.00 73 1009.9
20260504021509 52 220 1.0 1.0 0.00 0.00 0.00 73 1009.9
20260504021006 52 35 0.0 1.0 0.00 0.00 0.00 72 1010.0
20260504020503 52 212 4.0 6.0 0.00 0.00 0.00 72 1009.8
20260504015959 53 70 1.0 2.0 0.00 0.00 0.00 72 1010.0
20260504015455 53 197 3.0 5.0 0.00 0.00 0.00 71 1010.1
20260504014951 53 5 2.0 2.0 0.00 0.00 0.00 71 1009.8
20260504014448 53 218 3.0 5.0 0.00 0.00 0.00 70 1010.0
20260504013945 53 53 1.0 1.0 0.00 0.00 0.00 70 1009.9
20260504013443 53 53 2.0 3.0 0.00 0.00 0.00 70 1009.8
20260504012938 53 63 1.0 2.0 0.00 0.00 0.00 69 1009.9
20260504012437 53 343 1.0 1.0 0.00 0.00 0.00 69 1009.9
20260504011935 53 48 1.0 1.0 0.00 0.00 0.00 68 1009.7
20260504011431 54 349 1.0 2.0 0.00 0.00 0.00 68 1009.7
20260504010927 54 6 1.0 1.0 0.00 0.00 0.00 68 1009.7
20260504010423 54 12 1.0 1.0 0.00 0.00 0.00 67 1009.7
20260504005919 54 60 2.0 3.0 0.00 0.00 0.00 66 1009.8
20260504005416 55 32 0.0 0.0 0.00 0.00 0.00 66 1009.9
20260504004914 55 15 2.0 2.0 0.00 0.00 0.00 65 1009.7
20260504004411 55 71 1.0 1.0 0.00 0.00 0.00 65 1009.7
20260504003908 55 31 0.0 1.0 0.00 0.00 0.00 65 1009.8
20260504003404 55 220 1.0 3.0 0.00 0.00 0.00 64 1009.7
20260504002901 55 249 1.0 1.0 0.00 0.00 0.00 64 1009.8
20260504002358 55 145 1.0 2.0 0.00 0.00 0.00 64 1009.9
20260504001855 55 224 4.0 5.0 0.00 0.00 0.00 64 1009.8
20260504001353 55 78 3.0 5.0 0.00 0.00 0.00 64 1009.9
20260504000849 55 190 1.0 1.0 0.00 0.00 0.00 64 1009.9
20260504000346 55 28 0.0 0.0 0.00 0.00 0.00 63 1010.1
20260503235844 56 5 1.0 2.0 0.00 0.00 0.00 63 1010.1
20260503235342 55 237 2.0 2.0 0.00 0.00 0.00 63 1010.3
20260503234839 55 216 2.0 5.0 0.00 0.00 0.00 63 1010.1
20260503234336 55 359 2.0 3.0 0.00 0.00 0.00 62 1010.3
20260503233834 56 231 7.0 10.0 0.00 0.00 0.00 62 1010.1
20260503233330 56 249 3.0 3.0 0.00 0.00 0.00 62 1010.2
20260503232826 56 226 2.0 2.0 0.00 0.00 0.00 62 1010.4
20260503232324 56 38 1.0 1.0 0.00 0.00 0.00 61 1010.5
20260503231822 56 229 7.0 8.0 0.00 0.00 0.00 61 1010.6
20260503231318 56 28 2.0 2.0 0.00 0.00 0.00 61 1010.5
20260503230814 56 224 2.0 3.0 0.00 0.00 0.00 61 1010.6
20260503230311 56 219 9.0 11.0 0.00 0.00 0.00 60 1010.7
20260503225809 57 345 2.0 3.0 0.00 0.00 0.00 60 1010.7
20260503225305 57 245 2.0 2.0 0.00 0.00 0.00 60 1010.9
20260503224801 57 295 3.0 3.0 0.00 0.00 0.00 60 1010.7
20260503224259 57 2 2.0 3.0 0.00 0.00 0.00 60 1010.9
20260503223756 57 204 2.0 2.0 0.00 0.00 0.00 60 1010.9
20260503223254 56 114 7.0 14.0 0.00 0.00 0.00 60 1011.1
20260503222750 56 222 14.0 18.0 0.00 0.00 0.00 60 1011.4
20260503222248 56 240 3.0 5.0 0.00 0.00 0.00 61 1011.4
20260503221746 57 231 7.0 8.0 0.00 0.00 0.00 60 1011.6
20260503221244 57 84 8.0 10.0 0.00 0.00 0.00 60 1011.7
20260503220740 57 45 1.0 3.0 0.00 0.00 0.00 62 1011.6
20260503220237 57 216 12.0 20.0 0.00 0.00 0.00 61 1011.7
20260503215734 55 222 7.0 9.0 0.00 0.00 0.00 63 1011.9
20260503215231 55 199 3.0 5.0 0.00 0.00 0.00 65 1011.9
20260503214729 55 249 3.0 5.0 0.00 0.00 0.00 65 1012.2
20260503214225 54 205 7.0 8.0 0.00 0.00 0.00 66 1011.9
20260503213723 54 215 3.0 3.0 0.00 0.00 0.00 66 1011.9
20260503213220 54 271 4.0 7.0 0.00 0.00 0.00 67 1012.3
20260503212717 54 188 5.0 8.0 0.00 0.00 0.00 67 1012.2
20260503212215 53 257 3.0 3.0 0.00 0.00 0.00 68 1012.4
20260503211712 53 291 6.0 9.0 0.00 0.00 0.00 68 1012.3
20260503211208 53 233 4.0 8.0 0.00 0.00 0.00 69 1012.2
20260503210704 53 285 5.0 7.0 0.00 0.00 0.00 69 1012.3
20260503210201 52 230 8.0 11.0 0.00 0.00 0.00 70 1012.2
20260503205656 52 280 5.0 7.0 0.00 0.00 0.00 70 1012.3
20260503205153 52 354 3.0 6.0 0.00 0.00 0.00 71 1012.3
20260503204649 52 228 5.0 6.0 0.00 0.00 0.00 71 1012.4
20260503204147 52 210 5.0 8.0 0.00 0.00 0.00 71 1012.6
20260503203644 52 209 3.0 3.0 0.00 0.00 0.00 73 1012.4
20260503203142 51 233 1.0 3.0 0.00 0.00 0.00 75 1012.7
20260503202639 51 215 7.0 9.0 0.00 0.00 0.00 75 1013.0
20260503202137 51 195 7.0 10.0 0.00 0.00 0.00 76 1012.9
20260503201634 51 237 11.0 14.0 0.00 0.00 0.00 76 1013.0
20260503201132 50 225 3.0 8.0 0.00 0.00 0.00 79 1013.2
20260503200628 50 231 3.0 5.0 0.00 0.00 0.00 80 1013.2
20260503200124 51 220 8.0 10.0 0.00 0.00 0.00 78 1013.4
20260503195622 51 243 5.0 6.0 0.00 0.00 0.00 77 1013.7
20260503195118 51 220 9.0 10.0 0.00 0.00 0.00 75 1013.8
20260503194615 52 210 10.0 13.0 0.00 0.00 0.00 73 1013.8
20260503194110 52 225 9.0 13.0 0.00 0.00 0.00 70 1013.7
20260503193607 53 207 7.0 8.0 0.00 0.00 0.00 68 1013.4
20260503193103 53 176 7.0 9.0 0.00 0.00 0.00 66 1013.7
20260503192559 54 202 9.0 13.0 0.00 0.00 0.00 63 1013.6
20260503192055 55 245 10.0 14.0 0.00 0.00 0.00 61 1013.8
20260503191552 57 242 6.0 7.0 0.00 0.00 0.00 59 1013.8
20260503191048 57 221 11.0 14.0 0.00 0.00 0.00 57 1013.9
20260503190545 57 225 8.0 10.0 0.00 0.00 0.00 59 1013.8
20260503190043 58 258 5.0 7.0 0.00 0.00 0.00 57 1013.8
20260503185538 58 215 7.0 8.0 0.00 0.00 0.00 56 1013.7
20260503185033 59 228 7.0 10.0 0.00 0.00 0.00 55 1013.9
20260503184529 59 270 8.0 11.0 0.00 0.00 0.00 54 1013.7
20260503184026 59 219 8.0 11.0 0.00 0.00 0.00 53 1013.8
20260503183523 59 273 6.0 8.0 0.00 0.00 0.00 54 1013.7
20260503183020 58 199 9.0 14.0 0.00 0.00 0.00 55 1013.9
20260503182518 58 257 17.0 22.0 0.00 0.00 0.00 53 1014.0
20260503182016 59 223 15.0 20.0 0.00 0.00 0.00 53 1013.8
20260503181512 60 219 11.0 17.0 0.00 0.00 0.00 52 1013.9
20260503181008 59 217 9.0 11.0 0.00 0.00 0.00 52 1014.0
20260503180506 58 243 10.0 15.0 0.00 0.00 0.00 52 1014.2
20260503180003 59 240 7.0 8.0 0.00 0.00 0.00 52 1014.0
20260503175501 58 198 9.0 15.0 0.00 0.00 0.00 53 1014.1
20260503174957 58 212 10.0 11.0 0.00 0.00 0.00 53 1014.4
20260503174455 58 244 6.0 10.0 0.00 0.00 0.00 53 1014.3
20260503173950 59 251 6.0 9.0 0.00 0.00 0.00 53 1014.3
20260503173446 59 280 8.0 11.0 0.00 0.00 0.00 53 1014.2
20260503172943 59 214 3.0 6.0 0.00 0.00 0.00 53 1014.3
20260503172441 58 224 10.0 14.0 0.00 0.00 0.00 54 1014.2
20260503171937 57 237 9.0 11.0 0.00 0.00 0.00 54 1014.5
20260503171433 56 211 5.0 11.0 0.00 0.00 0.00 56 1014.6
20260503170931 57 238 15.0 22.0 0.00 0.00 0.00 56 1014.6
20260503170427 56 249 7.0 10.0 0.00 0.00 0.00 57 1014.6
20260503150820 53 225 6.0 9.0 0.00 0.00 0.00 57 1015.8
20260503150316 53 231 8.0 9.0 0.00 0.00 0.00 57 1015.5
20260503140240 51 208 3.0 3.0 0.00 0.00 0.00 59 1015.7
20260503131210 50 244 3.0 3.0 0.00 0.00 0.00 59 1016.1
20260503130707 50 206 7.0 9.0 0.00 0.00 0.00 58 1016.1
20260503130204 50 202 6.0 10.0 0.00 0.00 0.00 58 1016.1
20260503120130 47 227 5.0 7.0 0.00 0.00 0.00 63 1016.0
20260503110557 43 28 0.0 1.0 0.00 0.00 0.00 73 1016.0